Location: Elk Horn Observatory
(36.6768°N, 80.8309°W)
Time: 15:36:56
(UTC-05:00)

Envisat - Pass Details

Date: 02 February 2019
Orbit: 764 x 766 km, 98.2° (Epoch: 19 February)

Event Time Altitude Azimuth Distance (km) Brightness Sun altitude
Rises 18:17:55 0° 138° (SE) 3,218 6.0 -6.2°
Reaches altitude 10° 18:20:28 10° 127° (SE) 2,296 5.1 -6.7°
Maximum altitude 18:24:46 29° 69° (ENE) 1,384 3.8 -7.5°
Drops below altitude 10° 18:29:05 10° 11° (N) 2,307 5.2 -8.3°
Sets 18:31:39 0° 0° (N) 3,237 6.1 -8.8°
